Regional Weather Roundup
Issued by NWS Grand Forks, ND

Home | Current Version | Previous Version | Graphics & Text | Print | Product List | Glossary On
Versions: 1 2 3 4 5 6 7 8 9 10 11 12 13 14 15 16 17 18 19 20 21 22 23 24 25 26 27 28 29 30 31 32 33 34 35 36 37 38 39 40 41 42 43 44 45 46 47 48 49 50
000
ASUS43 KFGF 240310
RWRFGF
PRAIRIE TO PINES  WEATHER ROUNDUP
NATIONAL WEATHER SERVICE EASTERN NORTH DAKOTA/GRAND FORKS ND
900 PM CST THU NOV 23 2017

 **SATELLITE DATA USED TO AUGMENT SKY COVER AT AUTOMATED STATIONS**
 *****  WEATHER ACROSS EASTERN NORTH DAKOTA  *****

CITY           SKY/WX    TMP DP  RH WIND       PRES   REMARKS
GRAND FORKS    FAIR      37  34  89 S12       29.35F
GRAND FRKS AFB FAIR      41  36  82 SW10      29.34F
GRAND FRKS NWS   N/A     37 N/A N/A SW9         N/A
DEVILS LAKE    FAIR      49  37  63 SW17      29.34F
FARGO          FAIR      42  34  73 S12       29.43F
WAHPETON ARPT  NOT AVBL
$$

 ***** WEATHER ACROSS CENTRAL AND WESTERN NORTH DAKOTA  *****

CITY           SKY/WX    TMP DP  RH WIND       PRES   REMARKS
BISMARCK       FAIR      53  36  52 SW8       29.46F
MINOT          FAIR      55  37  50 SW16      29.32F
JAMESTOWN      FAIR      52  38  58 SW14      29.42F
MINOT AFB      FAIR      56  37  50 W15       29.30F
GARRISON         N/A     51  38  60 W15       29.38F
WILLISTON      FAIR      55  36  48 SW9       29.38F
DICKINSON      FAIR      54  35  48 SW16      29.47F
HETTINGER      FAIR      44  34  67 NW6       29.57F
$$

 *****  OTHER AIRPORT OBSERVATIONS IN OUR AREA  *****

CITY           SKY/WX    TMP DP  RH WIND       PRES   REMARKS
WALHALLA       FAIR      50  39  66 VRB5G13   29.25F
GRAFTON AIRPOR FAIR      36  34  93 S12       29.32F
VALLEY CITY AR FAIR      48  41  76 SW17      29.44F
CANDO          FAIR      41  37  87 W7        29.32F
CAVALIER APRT  FAIR      37  34  87 SW12      29.27F
GWINNER          N/A     50  39  66 SW14      29.48F
SHEYENNE NWR     N/A     49  38  66 SW14      29.95S
ROLLA          FAIR      46  37  71 W13       29.28F
 ***** THE ABOVE OBSERVATIONS ARE NON NWS ARE NOT QUALITY
       CONTROLLED AND MAY MIS-REPORT RAIN FOR SNOW...
$$

  *****  WEATHER ACROSS NORTHERN MINNESOTA  *****

CITY           SKY/WX    TMP DP  RH WIND       PRES   REMARKS
FLAG ISLAND    FAIR      28  25  86 S18       29.30F WCI  16
WARROAD        FAIR      30  27  86 S5        29.31F
ROSEAU         FAIR      36  30  80 S12       29.30F
HALLOCK        FAIR      37  34  87 S13       29.29F
THF RVR FALLS  FAIR      41  35  79 S14       29.36F
BAUDETTE       FAIR      30  25  81 S8        29.34F WCI  22
WASKISH        FAIR      37  30  75 S10G18    29.38F
CROOKSTON      FAIR      41  34  75 S17       29.37F
STEPHEN NDAWN    N/A     37  34  87 S17         N/A
GREENBUSH NDAW   N/A     37  34  87 S16         N/A
$$
  *****  WEATHER ACROSS CENTRAL AND WEST MINNESOTA  *****

CITY           SKY/WX    TMP DP  RH WIND       PRES   REMARKS
FOSSTON        FAIR      41  34  75 S15       29.41F
BEMIDJI        FAIR      38  31  77 S8        29.43F
PARK RAPIDS    FAIR      35  29  78 S7        29.48F
ELBOW LAKE     FAIR      40  33  75 S14       29.52F
WADENA         FAIR      36  30  80 S9        29.49F
DETROIT LAKES  FAIR      37  32  81 S8        29.47F
MOORHEAD       FAIR      41  32  70 S12       29.45F
FERGUS FALLS   FAIR      39  32  75 S10       29.52F
MORRIS MN      FAIR      43  34  70 S10       29.53F
STAPLES        FAIR      36  28  75 S6        29.52F
$$
  *****  WEATHER ELSEWHERE ACROSS MINNESOTA  *****

CITY           SKY/WX    TMP DP  RH WIND       PRES   REMARKS
DULUTH         FAIR      35  25  66 SW15      29.55F
INTRNTL FALLS  FAIR      33  24  69 S7        29.40F
ELY            FAIR      34  25  69 S10       29.51F
CLOQUET        FAIR      36  23  60 S10       29.56F
WHEATON        FAIR      52  37  58 SW10G17   29.52F
BRAINERD       FAIR      37  28  70 S9        29.55F
HIBBING        MOCLDY    33  24  69 S8        29.51F
ALEXANDRIA     FAIR      44  33  65 S9        29.54F
SAINT CLOUD    FAIR      39  30  70 S9        29.59F
MINNEAPOLIS    FAIR      38  29  70 S6        29.65F
$$

  *****  WEATHER ACROSS SOUTH DAKOTA  *****

CITY           SKY/WX    TMP DP  RH WIND       PRES   REMARKS
SIOUX FALLS    CLOUDY    56  42  59 SW10      29.65F
BROOKINGS      FAIR      47  37  68 S12       29.62F
WATERTOWN      FAIR      41  36  82 S9        29.58F
HURON          FAIR      49  40  71 S9        29.57F
SISSETON         N/A     56  41  57 SW20      29.49F
ABERDEEN       FAIR      40  36  86 S8        29.53F
MITCHELL       FAIR      56  41  57 SW10      29.62F
PIERRE         FAIR      57  39  51 SW10      29.57F
MOBRIDGE       FAIR      60  39  45 SW9       29.51F
RAPID CITY     FAIR      46  31  55 CALM      29.66F
$$

  *****  SOME WEATHER IN NEARBY STATES *****

CITY           SKY/WX    TMP DP  RH WIND       PRES   REMARKS
GLASGOW MT     FAIR      54  37  52 SW8       29.42F
GREAT FALLS MT FAIR      52  39  61 SW25G41   29.52F
CHEYENNE WY    FAIR      54  31  41 W18       29.97F
SCOTTSBLUFF NE FAIR      45  33  63 N3        29.84F
OMAHA NE       MOCLDY    50  37  61 SE12      29.80F
DES MOINES IA  FAIR      44  33  65 S9        29.83F
DAVENPORT IA   FLURRIES  34  25  69 S7        29.92F
CHICAGO IL     FAIR      37  26  64 SW6       29.90F
EAU CLAIRE WI  CLOUDY    37  23  56 S7        29.71F
LA CROSSE WI   MOCLDY    39  26  59 S15       29.78F
$$

  *****  SOME NATIONAL WEATHER *****

CITY           SKY/WX    TMP DP  RH WIND       PRES   REMARKS
LA GUARDIA NY  FAIR      40  22  48 NW9       30.04R
RALEIGH NC     FAIR      32  30  92 CALM      30.08R
ATLANTA GA     FAIR      50  40  68 E3        30.02R
NEW ORLEANS LA FAIR      54  40  59 N6        30.06R
OKLAHOMA CITY  FAIR      50  33  52 S7        30.00R
ALBUQUERQUE NM FAIR      54  30  40 CALM      30.19S
SALT LAKE CITY MOCLDY    54  45  71 S6        30.06F
LOS ANGELES CA FAIR      70  55  59 W7        29.92R
BOISE ID       CLOUDY    60  44  55 S8        29.90F
SEATTLE WA     FAIR      49  45  86 S15       29.92R
$$

*** WEATHER ACROSS MANITOBA...SASKATCHEWAN AND ONTARIO ***
                ***ONTARIO***

CITY           SKY/WX    TMP DP  RH WIND       PRES   REMARKS
GERALDTON      CLOUDY    12   7  79 SE7       29.64F WCI   2
THUNDER BAY    CLOUDY    32  27  80 E3        29.59F
SIOUX LOOKOUT  CLOUDY    25  21  86 SE9       29.37F WCI  15
TORONTO        CLOUDY    36  25  64 W12       29.93R
BIG TROUT LK   CLOUDY     7   0  72 S13       29.50F WCI  -9
PICKLE LAKE    NOT AVBL
DRYDEN         CLOUDY    28  23  80 S12       29.35F WCI  18
KENORA         FRZ RAIN  30  27  86 S15G23    29.29F WCI  19
$$
                *** MANITOBA***

CITY           SKY/WX    TMP DP  RH WIND       PRES   REMARKS
BRANDON        PTCLDY    39  34  81 W16       29.21F
DAUPHIN        PTCLDY    27  25  93 W13       29.15F WCI  16
ISLAND LAKE    NOT AVBL
PILOT MOUND      N/A     39  36  87 SW10        N/A
THE PAS        FRZ DRZL  14  10  85 SW3       29.21F
THOMPSON       LGT SNOW   1  -2  85 E6        29.29F WCI -10
WINNIPEG       CLOUDY    34  30  86 S18       29.20F WCI  23
LYNN LAKE      FLURRIES   0  -2  92 E8        29.19F WCI -15
CHURCHILL      CLEAR     -9 -15  77 W9        29.45F WCI -27
$$
                ***SASKATCHEWAN***

CITY           SKY/WX    TMP DP  RH WIND       PRES   REMARKS
ESTEVAN        MOCLDY    46  37  71 W9        29.33R
KINDERSLEY     CLOUDY    37  32  81 SW8       29.33F
LLOYDMINSTER   PTCLDY    36  32  87 W18       29.26R
PRINCE ALBERT  CLOUDY    25  23  93 SW6       29.21S WCI  18
REGINA         MOCLDY    36  34  93 SW7G17    29.32S
YORKTON        CLOUDY    36  32  87 W6        29.24R
N. BATTLEFORD  MOCLDY    39  30  70 W10       29.27R
LA RONGE       CLOUDY    18  16  93 S7        29.06F WCI   8
SASKATOON      CLOUDY    36  32  87 SW15      29.28R
SWIFT CURRENT  LGT RAIN  36  34  93 NW12      29.40F
$$
NOTE: THESE ARE AUTOMATED STATIONS WITH LIMITED QUALITY CONTROL
      "FAIR" INDICATES FEW OR NO CLOUDS BELOW 12,000 FEET WITH NO
      SIGNIFICANT WEATHER AND/OR OBSTRUCTIONS TO VISIBILITY.
      SKY/WX - SKY CONDITION AND SIGNIFICANT WEATHER.
      TMP - AIR TEMPERATURE.    DP   - DEWPOINT TEMPERATURE.
      RH  - RELATIVE HUMIDITY.  PRES - PRESSURE.
      HX  - HEAT INDEX.         WCI  - WIND CHILL INDEX.
$




USA.gov is the U.S. government's official web portal to all federal, state and local government web resources and services.